CZ-6A DEB, 54590

Orbit data source: Space-Track

CZ-6A DEB, 54590 is space debris in SSO originally from a launch on Fri, 11 Nov 2022 UTC launched from the Taiyaun Space Center, China (TSC). Debris objects in space refer to the collection of defunct objects orbiting the Earth. Examples of debris include non-operational satellites, rocket bodies, and fragments generated from explosions, collisions, or faulty payload assembly.

Loading next visibility...
Identifier
54590, 2022-151MQ
Orbit
SSO
Country
Flag of CNCN / PRC
Related business
Manufacturer
SAST
Mission
Spacecraft
Bus & Motor
Unknown
Mass
Unknown
Launch date (UTC)
2022-11-11 (4 years ago)
Launch vehicle
Unknown
Launch site
Taiyaun Space Center, China (TSC)
Object type
Payload
Rocket body
Debris
Shape & HBR
Unknown shape, 0.1 m
Radar Cross Section
Medium (>0.1 m² and <1 m²)

Expand to show TLE details & history
Last TLE update: 15 hours ago

TLE from 15 hours ago
0 CZ-6A DEB
1 54590U 22151MQ  26206.46592797  .00002965  00000-0  97287-3 0  9997
2 54590  98.6048 216.7307 0067110 318.5874  41.0237 14.37836901192615
Epoch: 2026-07-25T11:10Z
TLE epoch observation values (Epoch: 2026-07-25T11:10:56.176Z)
Latitude
0.00002°
Longitude
105.81882°
Altitude
732.56 km
Speed
7.508 km/s
True Right ascension
14h 26m 55s
True Declination
0° 00' 00"
Sunlit
Object was in daylight at epoch
Visualization orbit readout
Latitude
Unknown
Longitude
Unknown
Altitude
Unknown
Speed
Unknown
Apparent Right ascension
Unknown
Apparent Declination
Unknown
Sunlit
N/A
Visualization observer readout
Local Sidereal Time
15:09:51
Azimuth
Unknown
Elevation
Unknown
Doppler factor
Unknown
Orbital elements
Apogee altitude
810.707 km
Perigee altitude
714.861 km
Semi-major axis
7,140.921 km
Eccentricity
0.00671
Inclination
98.6048°
RAAN
216.7307°
Arg. of periapsis
318.5874°
True anomaly
41.53167°
Mean anomaly
41.0237°
Eccentric anomaly
41.27736°
Mean motion
3.59676 °/min
Orbital period
100.09 mins
BSTAR
0.00097287
Loading maneuver chart data...
Computing Atmospheric mass density...
Loading historical data...
Loading historical data...
Loading historical data...
Loading historical data...
Loading historical data...
Loading historical data...
Loading historical data...

Documentation

Showing up to 5 results
|